Probability
13 16 13 10 10 10 13 13 16 13 16 16 10 10 10 10 10 10 10 10 10 10 10 10 6 6 6 6 3 3 0 0 0 3 6 10 10 6 0 6 13 3 0
10 10 13 13 10 10 13 13 13 13 13 10 10 10 10 10 10 10 10 6 10 10 10 10 10 10 10 3 6 6 0 3 3 0 3 3 6 10 10 10 6 3 0
10 10 13 16 13 13 13 10 13 13 10 6 6 10 10 10 13 10 10 6 6 13 10 10 10 10 10 10 6 6 3 0 6 0 0 3 6 6 10 10 3 6 6
6 6 10 13 13 13 13 13 16 10 10 6 6 6 6 6 6 6 13 10 6 10 13 13 10 10 6 10 10 10 6 6 6 6 0 0 3 6 6 6 6 10 3
3 3 6 10 13 10 10 10 10 6 6 6 6 6 6 6 6 6 6 6 6 10 13 13 10 10 10 6 0 3 6 3 3 3 3 0 3 3 3 3 0 6 3
6 6 6 10 6 6 10 10 13 6 6 6 6 13 6 6 0 0 3 6 6 13 10 6 10 6 0 0 0 0 0 3 0 0 0 0 0 3 3 0 0 0 3
3 3 0 6 6 6 6 6 13 13 13 6 10 10 3 3 3 0 0 3 6 10 13 10 3 0 0 3 0 0 0 0 0 0 3 6 3 10 6 0 0 0 0
3 3 3 6 6 6 6 13 16 19 16 19 6 6 3 3 3 0 0 3 3 3 3 6 3 10 3 3 3 3 3 0 0 0 0 0 3 6 10 0 0 0 3
0 10 3 6 6 10 10 19 19 19 19 19 10 6 3 3 3 0 0 0 0 3 3 6 3 6 3 0 0 3 3 3 0 0 0 0 0 0 0 0 0 0 0
6 6 6 10 10 13 16 19 16 16 16 13 3 3 3 3 3 0 0 0 0 0 3 3 0 0 3 0 0 3 3 3 3 3 0 0 0 0 0 0 0 0 0
6 6 6 16 13 13 19 23 23 16 16 13 10 6 3 3 3 3 0 0 0 0 0 0 0 0 0 0 0 0 3 3 3 3 3 3 3 0 0 0 0 0 0
13 13 16 19 13 6 16 16 19 13 16 16 13 10 6 3 3 3 0 0 0 0 0 0 0 0 0 0 0 0 0 0 0 0 0 0 0 0 3 3 3 3 0
19 16 13 13 10 13 13 13 16 13 3 6 6 3 3 3 3 0 0 0 0 0 0 0 0 0 0 0 0 0 0 0 0 0 0 0 0 0 0 0 3 3 3
19 26 19 13 16 16 13 10 6 3 3 3 3 6 10 10 6 3 3 0 0 0 0 0 0 0 0 0 0 0 0 0 0 0 0 0 0 0 0 0 0 0 0
23 23 23 16 10 13 16 16 3 10 0 3 3 3 3 3 0 0 0 0 0 0 0 0 0 0 0 0 0 0 0 0 0 0 0 0 0 0 0 0 0 0 0
26 23 13 16 13 10 10 0 0 0 0 0 0 0 0 0 0 0 0 0 0 0 0 0 0 0 0 0 0 0 0 0 0 0 0 0 0 0 0 0 0 0 0
23 19 16 10 3 0 0 0 0 0 0 0 0 0 0 0 0 0 0 0 0 0 0 0 0 0 0 0 0 0 0 3 0 0 0 0 0 0 0 0 0 0 0
16 6 6 6 6 3 3 0 3 0 0 0 0 0 0 0 0 0 0 0 0 0 0 0 0 0 0 0 0 0 0 0 0 0 0 0 0 0 0 0 0 0 0
3 10 6 6 3 6 3 0 0 0 0 0 0 0 0 0 0 0 0 0 0 0 0 0 0 0 0 0 0 0 0 0 0 0 0 0 0 0 0 0 0 0 0
13 0 0 0 0 0 0 0 0 0 0 0 0 0 0 0 0 0 0 0 0 0 0 0 0 0 0 0 0 0 0 0 0 0 0 0 0 0 0 0 0 0 0
3 3 0 0 0 0 0 0 0 0 0 0 0 0 0 0 0 0 0 0 0 0 0 0 0 0 0 0 0 0 0 0 0 0 0 0 0 0 0 0 0 0 0
3 0 0 0 0 0 0 0 0 0 0 0 0 0 0 0 0 0 0 0 0 0 0 0 0 0 0 0 0 0 0 0 0 0 0 0 0 0 0 0 0 0 0
3 0 0 0 0 0 0 0 0 0 0 0 0 0 0 0 0 0 0 0 0 0 0 0 0 0 0 0 0 0 0 0 0 0 0 0 0 0 0 0 0 0 0
3 0 0 0 0 0 0 0 0 0 0 0 0 0 0 0 0 0 0 0 0 0 0 0 0 0 0 0 0 0 0 0 0 0 0 0 0 0 0 0 0 0 0
0 0 0 0 0 0 0 0 0 0 0 0 0 0 0 0 0 0 0 0 0 0 0 0 0 0 0 0 0 0 0 0 0 0 0 0 0 0 0 0 0 0 0
0 0 0 0 0 0 0 0 0 0 0 0 0 0 0 0 0 0 0 0 0 0 0 0 0 0 0 0 0 0 0 0 0 0 0 0 0 0 0 0 0 0 0
Height
5775 5772 5768 5765 5762 5759 5756 5754 5751 5748 5745 5742 5740 5737 5735 5732 5729 5727 5725 5723 5721 5721 5720 5719 5720 5721 5722 5723 5723 5724 5724 5725 5726 5728 5728 5729 5730 5730 5731 5732 5733 5734 5735
5772 5768 5764 5761 5758 5755 5752 5749 5746 5743 5741 5738 5735 5733 5730 5727 5724 5722 5719 5717 5715 5714 5713 5712 5713 5713 5714 5715 5715 5716 5717 5717 5718 5719 5720 5720 5720 5721 5722 5723 5724 5725 5726
5768 5764 5761 5758 5755 5751 5748 5745 5742 5739 5737 5734 5731 5728 5725 5723 5720 5717 5714 5712 5710 5709 5707 5706 5706 5706 5707 5707 5708 5708 5709 5709 5709 5710 5711 5711 5711 5712 5714 5714 5714 5715 5715
5765 5761 5758 5754 5751 5748 5744 5741 5739 5736 5733 5730 5727 5724 5721 5719 5716 5713 5710 5707 5705 5704 5702 5701 5700 5700 5700 5700 5700 5701 5701 5701 5701 5702 5702 5702 5703 5703 5704 5705 5705 5706 5706
5762 5758 5755 5751 5748 5745 5742 5738 5736 5733 5730 5727 5724 5721 5718 5715 5712 5709 5706 5703 5701 5699 5697 5696 5695 5694 5694 5694 5693 5693 5693 5694 5694 5694 5694 5694 5694 5695 5695 5695 5696 5696 5696
5759 5756 5752 5749 5745 5742 5739 5736 5733 5730 5727 5724 5721 5718 5714 5711 5708 5705 5702 5699 5697 5695 5693 5691 5689 5688 5688 5687 5686 5686 5686 5686 5686 5686 5686 5685 5685 5686 5686 5686 5687 5687 5688
5757 5754 5750 5746 5743 5739 5736 5733 5730 5727 5724 5721 5718 5714 5711 5707 5703 5700 5698 5695 5693 5691 5688 5687 5685 5683 5682 5681 5680 5679 5679 5678 5678 5678 5677 5677 5677 5678 5678 5678 5678 5678 5679
5755 5751 5747 5744 5740 5737 5733 5730 5727 5724 5721 5718 5714 5711 5707 5703 5699 5696 5694 5691 5688 5686 5684 5682 5680 5678 5676 5674 5673 5672 5671 5670 5670 5669 5669 5670 5669 5669 5669 5669 5669 5670 5670
5752 5749 5745 5741 5738 5734 5731 5727 5724 5721 5718 5714 5711 5707 5703 5699 5696 5692 5689 5687 5684 5682 5679 5677 5675 5673 5671 5669 5667 5665 5665 5664 5662 5661 5661 5661 5661 5660 5660 5660 5661 5661 5662
5749 5746 5742 5739 5735 5732 5728 5725 5721 5718 5714 5711 5707 5704 5700 5696 5692 5689 5685 5683 5680 5677 5675 5672 5669 5667 5665 5663 5661 5659 5658 5657 5656 5655 5654 5654 5653 5653 5652 5652 5653 5653 5654
5746 5743 5740 5736 5732 5729 5725 5722 5718 5715 5711 5708 5704 5700 5696 5692 5689 5685 5682 5679 5675 5672 5670 5667 5664 5662 5659 5657 5655 5653 5652 5651 5649 5648 5647 5646 5645 5645 5645 5645 5645 5645 5646
5743 5740 5737 5733 5729 5726 5722 5719 5715 5711 5707 5703 5699 5696 5692 5689 5685 5681 5678 5674 5671 5668 5665 5662 5659 5657 5654 5652 5650 5648 5646 5645 5643 5642 5640 5639 5638 5638 5637 5637 5637 5638 5638
5740 5736 5733 5729 5726 5722 5719 5715 5712 5708 5704 5700 5696 5692 5689 5685 5681 5678 5674 5671 5667 5664 5661 5658 5655 5652 5650 5647 5645 5642 5640 5639 5637 5635 5634 5633 5632 5631 5630 5630 5630 5630 5631
5736 5732 5729 5726 5722 5719 5715 5712 5708 5704 5701 5697 5693 5689 5685 5682 5678 5675 5671 5668 5664 5660 5657 5654 5651 5648 5645 5642 5639 5637 5634 5632 5630 5629 5628 5626 5625 5624 5623 5623 5623 5623 5623
5731 5728 5725 5721 5718 5715 5711 5708 5704 5701 5696 5693 5689 5686 5682 5679 5675 5671 5668 5664 5660 5656 5653 5650 5647 5644 5640 5637 5634 5632 5629 5627 5624 5623 5621 5620 5619 5618 5617 5616 5616 5615 5615
5727 5723 5720 5717 5714 5710 5707 5704 5700 5697 5693 5689 5685 5682 5678 5675 5671 5668 5664 5660 5656 5652 5649 5645 5642 5639 5635 5632 5629 5626 5623 5621 5618 5616 5615 5613 5612 5611 5610 5609 5608 5608 5608
5722 5718 5715 5712 5709 5706 5702 5699 5696 5693 5689 5685 5682 5678 5674 5671 5667 5664 5660 5656 5652 5648 5645 5641 5637 5634 5630 5627 5624 5621 5618 5615 5612 5610 5608 5606 5605 5604 5603 5602 5601 5601 5601
5716 5713 5710 5707 5704 5701 5698 5694 5691 5688 5685 5681 5678 5674 5670 5666 5663 5659 5655 5651 5648 5644 5640 5636 5632 5629 5625 5622 5618 5615 5612 5609 5607 5604 5602 5600 5598 5597 5596 5595 5594 5594 5594
5711 5708 5705 5701 5698 5695 5692 5689 5686 5682 5679 5676 5673 5669 5665 5661 5658 5654 5650 5646 5643 5639 5634 5631 5627 5623 5620 5616 5613 5610 5607 5604 5601 5598 5596 5594 5592 5591 5589 5588 5588 5587 5587
5705 5702 5698 5695 5692 5689 5687 5683 5680 5677 5674 5671 5668 5664 5660 5657 5653 5649 5645 5641 5637 5633 5629 5625 5621 5618 5614 5611 5607 5604 5601 5598 5595 5592 5590 5588 5586 5585 5584 5583 5582 5581 5581
5698 5696 5692 5689 5686 5683 5681 5678 5675 5672 5669 5666 5662 5658 5654 5651 5647 5643 5640 5636 5632 5628 5624 5620 5616 5613 5609 5605 5602 5598 5596 5593 5590 5587 5584 5582 5581 5579 5578 5578 5577 5577 5576
5692 5689 5686 5683 5680 5678 5675 5672 5669 5666 5663 5660 5657 5653 5649 5646 5642 5638 5635 5631 5627 5623 5619 5615 5611 5607 5604 5600 5597 5593 5590 5587 5585 5582 5579 5577 5576 5575 5574 5573 5573 5572 5572
5685 5683 5680 5677 5675 5672 5669 5666 5664 5661 5657 5654 5651 5648 5644 5641 5638 5634 5630 5626 5622 5618 5614 5610 5606 5602 5599 5595 5592 5589 5586 5583 5580 5577 5575 5573 5572 5571 5570 5569 5568 5568 5567
5680 5677 5675 5672 5670 5667 5664 5661 5659 5656 5653 5649 5646 5643 5640 5637 5633 5630 5626 5621 5617 5614 5609 5605 5601 5598 5594 5591 5587 5584 5581 5579 5577 5574 5572 5571 5569 5568 5567 5566 5565 5565 5564
5673 5671 5669 5667 5664 5662 5659 5656 5654 5651 5648 5645 5642 5639 5636 5633 5629 5625 5621 5617 5613 5609 5605 5601 5597 5593 5590 5587 5583 5580 5577 5575 5573 5571 5569 5568 5567 5565 5564 5563 5563 5562 5561
5667 5666 5664 5661 5659 5657 5654 5652 5649 5647 5644 5641 5638 5635 5632 5628 5625 5621 5617 5613 5609 5605 5601 5597 5593 5589 5586 5582 5579 5577 5574 5572 5570 5568 5566 5565 5564 5563 5562 5561 5560 5560 5559
Wind_Speed
21 21 21 21 21 21 22 22 22 22 21 21 21 21 21 21 22 22 22 22 23 23 24 24 26 26 27 27 27 26 26 27 28 28 29 30 30 30 30 30 30 31 32
22 22 21 21 21 22 22 21 21 20 20 21 21 21 20 21 21 21 21 21 20 21 21 22 23 24 25 26 27 27 27 28 28 28 28 29 30 29 29 30 31 31 33
23 22 21 22 22 22 21 20 20 20 20 21 21 20 20 20 21 21 20 19 19 19 19 20 21 23 24 25 26 27 27 28 28 28 28 29 29 29 29 30 31 31 32
22 21 20 20 21 21 20 19 19 19 20 20 20 20 20 20 20 20 19 18 18 19 19 19 20 21 22 23 24 25 26 26 27 28 28 29 30 30 31 31 31 31 32
21 20 20 20 21 20 19 18 18 18 19 20 20 20 19 20 20 20 20 19 19 19 19 19 19 20 21 22 23 24 25 25 26 27 28 29 28 29 30 30 30 29 30
20 19 20 20 20 19 19 18 18 19 19 19 19 20 20 20 20 20 19 19 19 19 18 18 19 20 21 22 24 24 25 25 25 26 27 28 28 28 28 29 29 29 29
19 19 20 20 20 19 19 19 19 19 19 19 20 21 22 21 20 19 18 18 18 18 18 18 18 19 21 22 23 23 24 24 25 26 26 27 27 26 27 27 28 28 29
19 20 20 20 20 20 20 20 19 19 19 19 20 21 21 21 19 18 18 18 19 19 18 19 19 19 19 20 21 22 22 23 24 25 25 26 27 27 28 27 26 27 27
19 19 20 20 20 20 21 20 19 19 20 20 21 21 21 20 19 18 18 18 19 19 18 19 20 20 20 21 21 22 22 22 23 23 24 25 27 27 28 27 27 26 26
19 19 20 20 20 21 21 20 20 21 20 21 21 20 20 20 19 19 19 19 19 19 19 20 20 20 21 21 21 21 21 22 22 22 23 24 26 26 27 26 26 25 24
20 19 20 20 20 21 21 21 21 21 21 21 21 20 19 20 20 20 19 20 19 20 20 20 19 19 20 20 20 20 20 20 21 21 22 23 23 24 24 24 24 24 24
20 20 21 20 20 21 21 21 22 21 21 21 21 21 21 21 20 20 19 19 19 19 20 19 19 19 19 19 19 19 19 19 20 21 22 22 22 22 22 23 23 24 24
21 21 21 21 20 21 21 21 21 21 21 22 21 21 20 20 19 19 19 19 19 20 20 19 19 18 18 19 18 18 18 19 19 19 20 21 21 21 21 21 21 22 23
22 21 21 21 21 21 22 21 21 22 21 21 21 21 20 20 19 19 20 20 20 20 20 19 19 18 18 18 19 19 20 20 20 20 20 20 19 19 19 20 21 22 22
22 22 21 21 21 21 22 21 21 22 22 21 21 21 20 20 20 21 21 21 21 21 21 20 20 19 19 19 19 19 20 20 20 20 20 20 20 20 20 21 21 21 22
22 22 22 22 22 21 22 22 22 22 22 21 21 20 20 21 21 22 22 22 21 21 21 21 21 21 20 20 20 20 21 21 20 20 20 20 20 20 21 21 21 21 22
23 23 23 23 23 22 22 23 22 22 22 22 21 21 21 22 22 23 23 23 22 23 22 22 21 21 21 21 21 21 20 20 19 19 19 19 19 19 20 20 20 21 21
23 23 23 24 23 23 23 24 24 23 22 21 21 22 22 22 23 23 23 23 23 23 23 23 22 22 22 21 21 21 20 20 19 19 19 18 18 19 19 19 19 20 20
24 24 25 25 24 24 24 24 23 23 22 22 22 22 22 22 22 23 23 24 24 24 24 23 23 23 23 22 21 20 20 20 19 19 19 19 19 19 18 18 18 18 18
24 25 26 25 24 24 23 23 23 23 23 23 23 23 23 23 23 24 24 24 25 24 24 23 22 22 22 22 21 21 21 20 20 19 19 19 19 18 17 17 17 17 17
25 26 26 25 24 24 23 23 22 22 23 23 23 23 24 24 24 24 24 24 24 24 23 23 23 22 22 22 21 21 21 21 20 19 18 17 17 16 16 15 14 14 14
25 25 25 24 24 23 23 23 22 22 23 23 23 23 23 24 24 23 24 24 24 24 24 23 22 22 21 21 20 20 19 19 19 17 16 15 14 14 13 13 13 13 13
23 23 23 22 22 22 22 21 21 22 22 22 22 22 22 22 23 23 23 23 22 23 23 22 22 21 20 20 19 18 18 17 16 15 13 12 12 12 11 12 11 12 12
22 22 21 21 21 21 20 20 21 21 21 21 21 21 20 21 21 22 23 23 22 22 22 22 21 21 20 19 18 18 17 16 16 14 12 11 10 10 10 11 11 10 10
22 22 21 21 21 21 20 19 20 20 20 20 20 20 21 21 22 22 23 23 23 23 22 21 21 20 19 18 18 17 16 15 15 13 12 11 11 10 10 10 10 9 9
21 21 21 21 20 20 20 20 19 19 19 20 20 20 21 21 22 23 23 23 22 23 22 21 21 20 19 18 17 16 15 14 13 12 11 11 11 11 10 10 10 9 9
Wind_Direction
323 321 321 320 319 317 314 311 310 311 310 307 305 305 304 304 301 298 294 287 283 279 275 271 266 265 265 266 265 265 265 265 265 264 262 262 261 259 260 262 262 261 260
325 323 322 321 320 320 318 315 314 313 311 311 310 309 308 308 307 304 299 293 287 282 277 273 270 267 267 267 266 267 268 267 267 265 264 263 261 259 261 263 262 262 261
323 323 322 322 322 321 321 319 318 316 317 317 316 313 310 311 312 309 304 298 290 286 282 278 274 271 269 269 269 270 270 270 268 267 266 264 262 262 263 263 263 264 264
327 327 326 325 325 325 325 323 322 320 319 318 317 316 314 313 314 312 309 304 298 292 288 284 279 275 273 273 273 273 272 271 270 269 268 266 264 264 264 264 264 267 266
330 330 329 329 328 328 328 326 325 323 321 320 319 319 318 315 313 311 310 305 301 298 294 290 284 278 276 277 277 275 273 273 273 272 271 267 266 265 266 266 266 266 265
332 332 331 331 330 329 329 326 324 324 324 323 323 323 321 319 316 311 309 307 303 301 299 294 290 283 280 280 279 277 275 276 275 274 272 270 269 268 267 267 266 266 264
332 331 330 330 330 330 330 327 324 325 326 325 325 324 323 321 318 315 310 308 304 303 299 297 295 291 287 285 282 279 277 276 277 277 274 272 269 268 269 269 267 266 265
329 329 330 330 330 330 329 327 325 324 325 324 324 325 325 324 319 315 312 310 308 304 300 296 296 295 293 290 287 282 280 280 279 277 276 273 271 269 270 269 269 267 264
326 328 330 330 330 328 327 326 325 324 325 323 323 324 323 323 321 318 315 312 311 308 304 299 298 299 297 293 289 284 282 282 282 279 278 277 273 271 271 269 269 269 265
324 325 328 328 329 328 327 326 326 325 324 324 323 324 324 325 324 322 318 315 314 312 310 305 300 301 299 295 290 286 284 283 282 281 281 280 275 271 269 268 267 266 266
322 323 325 326 327 327 326 327 327 326 325 324 325 325 324 324 323 320 317 316 314 314 313 310 306 303 301 299 295 291 288 285 284 282 282 281 279 274 270 269 267 266 266
319 320 322 323 324 325 325 325 325 326 326 325 326 325 323 322 322 321 320 320 318 316 315 313 312 309 306 303 301 296 291 288 288 286 283 282 281 276 271 269 267 264 263
317 316 317 318 319 321 323 324 324 324 325 325 325 324 324 326 326 325 324 325 324 323 321 319 316 314 310 306 303 298 293 292 291 288 286 285 283 278 272 269 268 266 264
316 314 314 314 316 319 320 321 322 323 323 325 327 327 325 327 328 328 328 325 324 323 322 321 318 316 312 308 305 302 299 294 290 288 287 286 283 279 274 271 269 268 266
316 315 314 314 315 318 320 321 322 323 323 323 325 326 326 325 326 327 327 326 325 324 321 319 317 315 312 310 307 304 302 298 293 290 288 286 283 281 278 275 273 271 269
314 314 313 313 313 314 316 318 318 319 319 319 320 322 323 324 324 324 324 324 324 323 322 318 315 315 313 311 309 306 302 299 295 291 288 287 285 282 279 277 275 273 271
311 312 312 312 311 312 314 316 316 316 315 317 319 319 321 322 322 322 322 322 322 321 321 320 317 316 316 314 311 308 306 303 300 296 293 290 288 285 282 279 276 274 273
309 310 311 311 309 310 312 314 316 317 316 316 318 319 320 320 319 319 320 320 320 319 319 319 318 316 315 313 313 312 309 306 302 299 298 296 292 288 283 279 276 274 272
307 308 309 309 308 308 310 313 314 315 316 316 317 318 319 319 317 317 318 318 319 319 319 318 316 315 315 315 314 314 312 308 303 298 295 294 292 290 286 282 279 277 275
305 307 307 307 307 306 308 311 313 314 315 315 315 316 317 318 318 317 317 317 318 319 319 319 318 317 316 315 312 311 311 309 304 300 295 292 291 289 286 283 282 280 278
303 305 306 306 306 306 307 309 311 313 314 315 316 316 316 316 317 319 320 321 320 320 319 319 319 318 317 316 314 312 311 310 307 303 298 294 290 288 287 284 282 281 280
304 305 307 307 306 306 305 307 310 312 313 315 316 316 317 317 318 318 320 322 323 323 322 321 320 319 319 318 317 316 314 313 312 309 306 303 297 293 293 288 284 283 284
304 305 308 310 308 309 309 309 311 313 314 315 316 317 317 318 319 321 323 323 324 324 324 324 323 323 321 319 319 319 318 319 321 318 312 307 304 301 295 295 291 285 284
303 303 306 309 309 310 311 312 313 315 315 315 316 318 320 322 323 323 324 325 326 326 326 325 325 324 324 323 323 321 319 319 321 321 317 314 310 307 304 303 298 294 290
300 301 303 305 305 308 311 312 312 313 316 318 319 321 322 324 325 325 325 326 326 327 327 326 326 326 325 325 323 321 320 320 318 316 315 314 314 312 308 309 309 307 302
296 298 303 305 304 304 307 309 311 312 314 316 317 319 321 323 324 325 326 325 324 325 327 326 325 325 324 323 323 322 322 321 318 313 310 312 311 308 304 302 301 299 302